GSAT0218 (GALILEO 22)

Last updated on Feb. 23, 2020, 4:52 a.m. UTC

1 43058U 17079D   20052.54082578  .00000009  00000-0  00000+0 0  9990
2 43058  56.3583 285.0015 0003198 289.6521  70.3859  1.70473916 13641
UTC
Height (km)
Latitude
Longitude
Inclination
Orbital Period
UTC large
Height (km)
Speed (km/s)
/
Latitude / Longitude
Inclination (degrees)
Orbital Period (minutes)
Azimuth
Elevation
Range (km)
Doppler Factor
iOS Compass Heading
iOS Angle

Next 30 passes for location: Hong Kong

Rise time Rise Azimuth (degrees) Set time Set Azimuth (degrees) Duration Max altitude (degrees)

No matching passes for this satellites